Time,TemperatureF,DewpointF,PressureIn,WindDirection,WindDirectionDegrees,WindSpeedMPH,WindSpeedGustMPH,Humidity,HourlyPrecipIn,Conditions,Clouds,dailyrainin,SoftwareType,DateUTC
2013-01-09 00:03:00,29.0,23.0,30.22,SSW,210,0.0,-999.0,78,-99.99,,,-99.99,,2013-01-09 05:03:00,
2013-01-09 00:12:00,29.0,23.0,30.22,SSW,210,0.0,-999.0,78,-99.99,,,-99.99,,2013-01-09 05:12:00,
2013-01-09 00:22:00,28.0,22.0,30.22,SSW,210,0.0,-999.0,79,-99.99,,,-99.99,,2013-01-09 05:22:00,
2013-01-09 00:33:00,27.0,22.0,30.22,SSW,210,0.0,-999.0,81,-99.99,,,-99.99,,2013-01-09 05:33:00,
2013-01-09 00:43:00,27.0,22.0,30.22,SSW,210,0.0,-999.0,81,-99.99,,,-99.99,,2013-01-09 05:43:00,
2013-01-09 00:52:00,27.0,22.0,30.22,SSW,210,0.0,-999.0,82,-99.99,,,-99.99,,2013-01-09 05:52:00,
2013-01-09 01:02:00,27.0,22.0,30.20,SSW,193,0.0,-999.0,82,-99.99,,,-99.99,,2013-01-09 06:02:00,
2013-01-09 01:12:00,27.0,22.0,30.20,SSW,193,0.0,-999.0,82,-99.99,,,-99.99,,2013-01-09 06:12:00,
2013-01-09 01:22:00,27.0,23.0,30.20,SSE,148,0.0,-999.0,83,-99.99,,,-99.99,,2013-01-09 06:22:00,
2013-01-09 01:32:00,27.0,23.0,30.20,South,185,0.0,-999.0,83,-99.99,,,-99.99,,2013-01-09 06:32:00,
2013-01-09 01:42:00,27.0,23.0,30.20,South,185,0.0,-999.0,83,-99.99,,,-99.99,,2013-01-09 06:42:00,
2013-01-09 01:52:00,27.0,23.0,30.19,SW,236,0.0,-999.0,83,-99.99,,,-99.99,,2013-01-09 06:52:00,
2013-01-09 02:02:00,27.0,23.0,30.19,SW,236,0.0,-999.0,84,-99.99,,,-99.99,,2013-01-09 07:02:00,
2013-01-09 02:12:00,27.0,23.0,30.19,SW,236,0.0,-999.0,84,-99.99,,,-99.99,,2013-01-09 07:12:00,
2013-01-09 02:22:00,26.0,22.0,30.19,SW,236,0.0,-999.0,84,-99.99,,,-99.99,,2013-01-09 07:22:00,
2013-01-09 02:32:00,26.0,22.0,30.19,SW,236,0.0,-999.0,84,-99.99,,,-99.99,,2013-01-09 07:32:00,
2013-01-09 02:42:00,26.0,22.0,30.19,SW,236,0.0,-999.0,84,-99.99,,,-99.99,,2013-01-09 07:42:00,
2013-01-09 02:52:00,25.0,21.0,30.19,SW,236,0.0,-999.0,86,-99.99,,,-99.99,,2013-01-09 07:52:00,
2013-01-09 03:02:00,24.0,20.0,30.19,West,267,0.0,-999.0,86,-99.99,,,-99.99,,2013-01-09 08:02:00,
2013-01-09 03:12:00,24.0,20.0,30.19,West,267,0.0,-999.0,86,-99.99,,,-99.99,,2013-01-09 08:12:00,
2013-01-09 03:22:00,24.0,20.0,30.19,West,267,0.0,-999.0,86,-99.99,,,-99.99,,2013-01-09 08:22:00,
2013-01-09 03:32:00,25.0,22.0,30.19,SW,216,0.0,-999.0,88,-99.99,,,-99.99,,2013-01-09 08:32:00,
2013-01-09 03:43:00,25.0,22.0,30.19,SW,216,0.0,-999.0,88,-99.99,,,-99.99,,2013-01-09 08:43:00,
2013-01-09 03:53:00,25.0,22.0,30.18,SW,229,0.0,-999.0,87,-99.99,,,-99.99,,2013-01-09 08:53:00,
2013-01-09 04:02:00,26.0,23.0,30.18,SW,219,0.0,-999.0,88,-99.99,,,-99.99,,2013-01-09 09:02:00,
2013-01-09 04:12:00,26.0,23.0,30.18,SW,219,0.0,-999.0,88,-99.99,,,-99.99,,2013-01-09 09:12:00,
2013-01-09 04:22:00,26.0,23.0,30.17,NNW,328,1.0,-999.0,87,-99.99,,,-99.99,,2013-01-09 09:22:00,
2013-01-09 04:32:00,26.0,23.0,30.18,NNW,328,0.0,-999.0,87,-99.99,,,-99.99,,2013-01-09 09:32:00,
2013-01-09 04:42:00,26.0,23.0,30.18,NNW,328,0.0,-999.0,87,-99.99,,,-99.99,,2013-01-09 09:42:00,
2013-01-09 04:53:00,26.0,23.0,30.17,West,280,0.0,-999.0,87,-99.99,,,-99.99,,2013-01-09 09:53:00,
2013-01-09 05:02:00,26.0,22.0,30.16,SSE,154,0.0,-999.0,86,-99.99,,,-99.99,,2013-01-09 10:02:00,
2013-01-09 05:12:00,26.0,22.0,30.16,SSE,154,0.0,-999.0,86,-99.99,,,-99.99,,2013-01-09 10:12:00,
2013-01-09 05:22:00,27.0,23.0,30.16,SE,128,0.0,-999.0,85,-99.99,,,-99.99,,2013-01-09 10:22:00,
2013-01-09 05:32:00,26.0,22.0,30.16,WNW,292,1.0,-999.0,85,-99.99,,,-99.99,,2013-01-09 10:32:00,
2013-01-09 05:42:00,26.0,22.0,30.16,WNW,292,1.0,-999.0,85,-99.99,,,-99.99,,2013-01-09 10:42:00,
2013-01-09 05:52:00,26.0,22.0,30.16,NW,315,1.0,-999.0,85,-99.99,,,-99.99,,2013-01-09 10:52:00,
2013-01-09 06:02:00,26.0,22.0,30.16,NW,315,0.0,-999.0,86,-99.99,,,-99.99,,2013-01-09 11:02:00,
2013-01-09 06:12:00,26.0,22.0,30.16,NW,315,0.0,-999.0,86,-99.99,,,-99.99,,2013-01-09 11:12:00,
2013-01-09 06:22:00,26.0,22.0,30.16,NW,315,0.0,-999.0,86,-99.99,,,-99.99,,2013-01-09 11:22:00,
2013-01-09 06:33:00,27.0,23.0,30.13,South,191,0.0,-999.0,83,-99.99,,,-99.99,,2013-01-09 11:33:00,
2013-01-09 06:43:00,27.0,23.0,30.13,South,191,0.0,-999.0,83,-99.99,,,-99.99,,2013-01-09 11:43:00,
2013-01-09 06:53:00,28.0,23.0,30.13,SW,215,0.0,-999.0,81,-99.99,,,-99.99,,2013-01-09 11:53:00,
2013-01-09 07:03:00,28.0,23.0,30.13,WSW,248,0.0,-999.0,81,-99.99,,,-99.99,,2013-01-09 12:03:00,
2013-01-09 07:12:00,28.0,23.0,30.13,WSW,248,0.0,-999.0,81,-99.99,,,-99.99,,2013-01-09 12:12:00,
2013-01-09 07:23:00,29.0,24.0,30.13,SSW,196,1.0,-999.0,81,-99.99,,,-99.99,,2013-01-09 12:23:00,
2013-01-09 07:33:00,31.0,25.0,30.13,South,186,2.0,-999.0,77,-99.99,,,-99.99,,2013-01-09 12:33:00,
2013-01-09 07:43:00,31.0,25.0,30.13,South,186,2.0,-999.0,77,-99.99,,,-99.99,,2013-01-09 12:43:00,
2013-01-09 07:52:00,34.0,25.0,30.13,South,174,2.0,-999.0,68,-99.99,,,-99.99,,2013-01-09 12:52:00,
2013-01-09 08:03:00,36.0,25.0,30.11,SW,215,2.0,-999.0,64,-99.99,,,-99.99,,2013-01-09 13:03:00,
2013-01-09 08:12:00,36.0,25.0,30.11,SW,215,2.0,-999.0,64,-99.99,,,-99.99,,2013-01-09 13:12:00,
2013-01-09 08:23:00,37.0,26.0,30.12,SSW,205,3.0,-999.0,64,-99.99,,,-99.99,,2013-01-09 13:23:00,
2013-01-09 08:33:00,37.0,26.0,30.12,SSW,193,4.0,-999.0,65,-99.99,,,-99.99,,2013-01-09 13:33:00,
2013-01-09 08:43:00,37.0,26.0,30.12,SSW,193,4.0,-999.0,65,-99.99,,,-99.99,,2013-01-09 13:43:00,
2013-01-09 08:52:00,38.0,28.0,30.11,SSW,210,3.0,-999.0,66,-99.99,,,-99.99,,2013-01-09 13:52:00,
2013-01-09 09:03:00,38.0,28.0,30.11,SSE,165,3.0,-999.0,67,-99.99,,,-99.99,,2013-01-09 14:03:00,
2013-01-09 09:12:00,38.0,28.0,30.11,SSE,165,3.0,-999.0,67,-99.99,,,-99.99,,2013-01-09 14:12:00,
2013-01-09 09:23:00,39.0,29.0,30.11,SSW,196,3.0,-999.0,68,-99.99,,,-99.99,,2013-01-09 14:23:00,
2013-01-09 09:33:00,40.0,30.0,30.13,WSW,241,4.0,-999.0,68,-99.99,,,-99.99,,2013-01-09 14:33:00,
2013-01-09 09:43:00,40.0,30.0,30.13,WSW,241,4.0,-999.0,68,-99.99,,,-99.99,,2013-01-09 14:43:00,
2013-01-09 09:53:00,39.0,33.0,30.14,South,169,7.0,-999.0,78,-99.99,,,-99.99,,2013-01-09 14:53:00,
2013-01-09 10:03:00,38.0,33.0,30.09,South,191,4.0,-999.0,83,-99.99,,,-99.99,,2013-01-09 15:03:00,
2013-01-09 10:13:00,38.0,33.0,30.09,South,191,4.0,-999.0,83,-99.99,,,-99.99,,2013-01-09 15:13:00,
2013-01-09 10:23:00,38.0,34.0,30.09,South,175,5.0,-999.0,84,-99.99,,,-99.99,,2013-01-09 15:23:00,
2013-01-09 10:33:00,38.0,34.0,30.10,SW,217,5.0,-999.0,84,-99.99,,,-99.99,,2013-01-09 15:33:00,
2013-01-09 10:43:00,38.0,34.0,30.10,SW,217,5.0,-999.0,84,-99.99,,,-99.99,,2013-01-09 15:43:00,
2013-01-09 10:53:00,38.0,34.0,30.10,SSW,208,7.0,-999.0,84,-99.99,,,-99.99,,2013-01-09 15:53:00,
2013-01-09 11:04:00,39.0,35.0,30.11,SSW,200,7.0,-999.0,84,-99.99,,,-99.99,,2013-01-09 16:04:00,
2013-01-09 11:12:00,39.0,35.0,30.11,SSW,200,7.0,-999.0,84,-99.99,,,-99.99,,2013-01-09 16:12:00,
2013-01-09 11:23:00,39.0,34.0,30.10,SSW,212,7.0,-999.0,81,-99.99,,,-99.99,,2013-01-09 16:23:00,
2013-01-09 11:33:00,39.0,34.0,30.10,SSW,212,7.0,-999.0,81,-99.99,,,-99.99,,2013-01-09 16:33:00,
2013-01-09 11:43:00,39.0,34.0,30.10,SSW,212,7.0,-999.0,81,-99.99,,,-99.99,,2013-01-09 16:43:00,
2013-01-09 11:53:00,39.0,33.0,30.09,SSW,203,6.0,-999.0,80,-99.99,,,-99.99,,2013-01-09 16:53:00,
2013-01-09 12:03:00,40.0,34.0,30.09,SSW,206,7.0,-999.0,79,-99.99,,,-99.99,,2013-01-09 17:03:00,
2013-01-09 12:12:00,40.0,34.0,30.09,SSW,206,7.0,-999.0,79,-99.99,,,-99.99,,2013-01-09 17:12:00,
2013-01-09 12:23:00,40.0,34.0,30.08,South,171,7.0,-999.0,79,-99.99,,,-99.99,,2013-01-09 17:23:00,
2013-01-09 12:33:00,41.0,34.0,30.07,SSW,202,10.0,-999.0,76,-99.99,,,-99.99,,2013-01-09 17:33:00,
2013-01-09 12:43:00,41.0,34.0,30.07,SSW,202,10.0,-999.0,76,-99.99,,,-99.99,,2013-01-09 17:43:00,
2013-01-09 12:53:00,42.0,35.0,30.07,SSW,208,10.0,-999.0,76,-99.99,,,-99.99,,2013-01-09 17:53:00,
2013-01-09 13:03:00,43.0,35.0,30.07,SSW,198,6.0,-999.0,72,-99.99,,,-99.99,,2013-01-09 18:03:00,
2013-01-09 13:13:00,43.0,35.0,30.07,SSW,198,6.0,-999.0,72,-99.99,,,-99.99,,2013-01-09 18:13:00,
2013-01-09 13:24:00,44.0,35.0,30.07,SW,223,7.0,-999.0,71,-99.99,,,-99.99,,2013-01-09 18:24:00,
2013-01-09 13:33:00,44.0,35.0,30.07,SW,216,7.0,-999.0,70,-99.99,,,-99.99,,2013-01-09 18:33:00,
2013-01-09 13:43:00,44.0,35.0,30.07,SW,216,7.0,-999.0,70,-99.99,,,-99.99,,2013-01-09 18:43:00,
2013-01-09 13:53:00,44.0,34.0,30.06,WSW,247,9.0,-999.0,68,-99.99,,,-99.99,,2013-01-09 18:53:00,
2013-01-09 14:03:00,44.0,34.0,30.06,SW,216,8.0,-999.0,67,-99.99,,,-99.99,,2013-01-09 19:03:00,
2013-01-09 14:13:00,44.0,34.0,30.06,SW,216,8.0,-999.0,67,-99.99,,,-99.99,,2013-01-09 19:13:00,
2013-01-09 14:23:00,45.0,35.0,30.05,WSW,247,9.0,-999.0,67,-99.99,,,-99.99,,2013-01-09 19:23:00,
2013-01-09 14:33:00,45.0,35.0,30.05,WSW,247,9.0,-999.0,67,-99.99,,,-99.99,,2013-01-09 19:33:00,
2013-01-09 14:43:00,45.0,35.0,30.05,WSW,247,9.0,-999.0,67,-99.99,,,-99.99,,2013-01-09 19:43:00,
2013-01-09 14:52:00,45.0,32.0,30.06,WSW,243,8.0,-999.0,61,-99.99,,,-99.99,,2013-01-09 19:52:00,
2013-01-09 15:03:00,46.0,33.0,30.06,West,265,7.0,-999.0,60,-99.99,,,-99.99,,2013-01-09 20:03:00,
2013-01-09 15:12:00,46.0,33.0,30.06,West,265,7.0,-999.0,60,-99.99,,,-99.99,,2013-01-09 20:12:00,
2013-01-09 15:23:00,46.0,32.0,30.07,NW,320,5.0,-999.0,58,-99.99,,,-99.99,,2013-01-09 20:23:00,
2013-01-09 15:33:00,46.0,32.0,30.08,South,185,6.0,-999.0,57,-99.99,,,-99.99,,2013-01-09 20:33:00,
2013-01-09 15:43:00,46.0,32.0,30.08,South,185,6.0,-999.0,57,-99.99,,,-99.99,,2013-01-09 20:43:00,
2013-01-09 15:53:00,46.0,31.0,30.08,SW,226,9.0,-999.0,56,-99.99,,,-99.99,,2013-01-09 20:53:00,
2013-01-09 16:03:00,46.0,31.0,30.08,SW,226,9.0,-999.0,56,-99.99,,,-99.99,,2013-01-09 21:03:00,
2013-01-09 16:13:00,46.0,31.0,30.08,SW,226,9.0,-999.0,56,-99.99,,,-99.99,,2013-01-09 21:13:00,
2013-01-09 16:23:00,46.0,29.0,30.09,SSW,212,6.0,-999.0,51,-99.99,,,-99.99,,2013-01-09 21:23:00,
2013-01-09 16:33:00,46.0,28.0,30.10,SW,229,6.0,-999.0,50,-99.99,,,-99.99,,2013-01-09 21:33:00,
2013-01-09 16:43:00,46.0,28.0,30.10,SW,229,6.0,-999.0,50,-99.99,,,-99.99,,2013-01-09 21:43:00,
2013-01-09 16:52:00,44.0,27.0,30.12,WSW,253,7.0,-999.0,51,-99.99,,,-99.99,,2013-01-09 21:52:00,
2013-01-09 17:03:00,44.0,27.0,30.13,WSW,237,4.0,-999.0,51,-99.99,,,-99.99,,2013-01-09 22:03:00,
2013-01-09 17:12:00,44.0,27.0,30.13,WSW,237,4.0,-999.0,51,-99.99,,,-99.99,,2013-01-09 22:12:00,
2013-01-09 17:23:00,43.0,27.0,30.12,NW,308,5.0,-999.0,52,-99.99,,,-99.99,,2013-01-09 22:23:00,
2013-01-09 18:23:00,-999.0,-99.9,30.18,SW,233,13.0,-999.0,-999,-99.99,,,-99.99,,2013-01-09 23:23:00,
2013-01-09 18:33:00,41.0,-99.9,30.17,WSW,257,2.0,-999.0,-999,-99.99,,,-99.99,,2013-01-09 23:33:00,
2013-01-09 18:43:00,41.0,-99.9,30.17,WSW,257,2.0,-999.0,-999,-99.99,,,-99.99,,2013-01-09 23:43:00,
2013-01-09 18:53:00,41.0,-99.9,30.17,WSW,257,2.0,-999.0,-999,-99.99,,,-99.99,,2013-01-09 23:53:00,
2013-01-09 19:03:00,40.0,25.0,30.19,NW,312,5.0,-999.0,54,-99.99,,,-99.99,,2013-01-10 00:03:00,
2013-01-09 19:12:00,40.0,25.0,30.19,NW,312,5.0,-999.0,54,-99.99,,,-99.99,,2013-01-10 00:12:00,
2013-01-09 19:22:00,40.0,25.0,30.20,NNW,336,6.0,-999.0,54,-99.99,,,-99.99,,2013-01-10 00:22:00,
2013-01-09 19:32:00,40.0,25.0,30.20,WNW,289,1.0,-999.0,54,-99.99,,,-99.99,,2013-01-10 00:32:00,
2013-01-09 19:42:00,40.0,25.0,30.20,WNW,289,1.0,-999.0,54,-99.99,,,-99.99,,2013-01-10 00:42:00,
2013-01-09 20:22:00,39.0,25.0,30.23,West,260,11.0,-999.0,58,-99.99,,,-99.99,,2013-01-10 01:22:00,
2013-01-09 20:33:00,38.0,25.0,30.24,WNW,288,7.0,-999.0,60,-99.99,,,-99.99,,2013-01-10 01:33:00,
2013-01-09 20:43:00,38.0,25.0,30.24,WNW,288,7.0,-999.0,60,-99.99,,,-99.99,,2013-01-10 01:43:00,
2013-01-09 20:52:00,38.0,25.0,30.24,NW,311,1.0,-999.0,60,-99.99,,,-99.99,,2013-01-10 01:52:00,
2013-01-09 21:03:00,38.0,26.0,30.25,WSW,250,3.0,-999.0,61,-99.99,,,-99.99,,2013-01-10 02:03:00,
2013-01-09 21:12:00,38.0,26.0,30.25,WSW,250,3.0,-999.0,61,-99.99,,,-99.99,,2013-01-10 02:12:00,
2013-01-09 21:22:00,37.0,26.0,30.26,SW,223,2.0,-999.0,63,-99.99,,,-99.99,,2013-01-10 02:22:00,
2013-01-09 21:33:00,37.0,26.0,30.25,WSW,258,1.0,-999.0,64,-99.99,,,-99.99,,2013-01-10 02:33:00,
2013-01-09 21:43:00,37.0,26.0,30.25,WSW,258,1.0,-999.0,64,-99.99,,,-99.99,,2013-01-10 02:43:00,
2013-01-09 21:52:00,37.0,26.0,30.25,WSW,258,1.0,-999.0,64,-99.99,,,-99.99,,2013-01-10 02:52:00,
2013-01-09 22:03:00,36.0,26.0,30.29,WSW,241,1.0,-999.0,66,-99.99,,,-99.99,,2013-01-10 03:03:00,
2013-01-09 22:12:00,36.0,26.0,30.29,WSW,241,1.0,-999.0,66,-99.99,,,-99.99,,2013-01-10 03:12:00,
2013-01-09 23:03:00,-999.0,-99.9,30.32,WSW,247,0.0,-999.0,-999,-99.99,,,-99.99,,2013-01-10 04:03:00,
2013-01-09 23:12:00,-999.0,-99.9,30.32,WSW,247,0.0,-999.0,-999,-99.99,,,-99.99,,2013-01-10 04:12:00,
2013-01-09 23:22:00,34.0,-99.9,30.34,West,261,0.0,-999.0,-999,-99.99,,,-99.99,,2013-01-10 04:22:00,
2013-01-09 23:32:00,34.0,-99.9,30.33,SW,230,1.0,-999.0,-999,-99.99,,,-99.99,,2013-01-10 04:32:00,
2013-01-09 23:43:00,34.0,-99.9,30.33,SW,230,1.0,-999.0,-999,-99.99,,,-99.99,,2013-01-10 04:43:00,
2013-01-09 23:52:00,32.0,24.0,30.34,SSW,199,0.0,-999.0,73,-99.99,,,-99.99,,2013-01-10 04:52:00,